Hourly Weather Dzhusinsk

Today, 17 April, Saturday

Time Temperature Precipitation Wind Pressure Humidity
00:00 +8°C° 0 mm 4 mps 734 mmHg 77%
01:00 +7°C° 0 mm 5 mps 734 mmHg 87%
02:00 +7°C° 0 mm 5 mps 735 mmHg 90%
03:00 +6°C° 0 mm 5 mps 735 mmHg 93%
04:00 +6°C° 0 mm 5 mps 735 mmHg 96%
05:00 +6°C° 0 mm 5 mps 735 mmHg 95%
06:00 +6°C° 0 mm 5 mps 735 mmHg 95%
07:00 +6°C° 0 mm 5 mps 735 mmHg 94%
08:00 +8°C° 0 mm 4 mps 735 mmHg 86%
09:00 +11°C° 0 mm 4 mps 736 mmHg 77%
10:00 +13°C° 0 mm 4 mps 736 mmHg 69%
11:00 +14°C° 0 mm 4 mps 735 mmHg 63%
12:00 +15°C° 0 mm 4 mps 735 mmHg 57%
13:00 +17°C° 0 mm 3 mps 735 mmHg 51%
14:00 +18°C° 0 mm 3 mps 735 mmHg 47%
15:00 +18°C° 0 mm 3 mps 735 mmHg 43%
16:00 +18°C° 0 mm 2 mps 734 mmHg 39%
17:00 +17°C° 0 mm 3 mps 734 mmHg 44%
18:00 +16°C° 0 mm 3 mps 734 mmHg 49%
19:00 +14°C° 0 mm 3 mps 733 mmHg 54%
20:00 +13°C° 0 mm 3 mps 733 mmHg 57%
21:00 +12°C° 0 mm 3 mps 733 mmHg 60%
22:00 +11°C° 0 mm 3 mps 733 mmHg 64%
23:00 +11°C° 0 mm 3 mps 733 mmHg 64%

Tomorrow, 18 April, Sunday

Time Temperature Precipitation Wind Pressure Humidity
00:00 +10°C° 0 mm 2 mps 732 mmHg 64%
01:00 +9°C° 0 mm 2 mps 732 mmHg 64%
02:00 +9°C° 0 mm 2 mps 732 mmHg 64%
03:00 +9°C° 0 mm 2 mps 732 mmHg 63%
04:00 +10°C° 0 mm 1 mps 731 mmHg 63%
05:00 +10°C° 0 mm 1 mps 731 mmHg 62%
06:00 +11°C° 0 mm 1 mps 731 mmHg 62%
07:00 +12°C° 0 mm 1 mps 731 mmHg 61%
08:00 +13°C° 0 mm 1 mps 731 mmHg 57%
09:00 +14°C° 0 mm 2 mps 731 mmHg 52%
10:00 +16°C° 0 mm 2 mps 731 mmHg 48%
11:00 +17°C° 0 mm 2 mps 731 mmHg 46%
12:00 +17°C° 0 mm 3 mps 731 mmHg 45%
13:00 +18°C° 0 mm 3 mps 731 mmHg 44%
14:00 +18°C° 0.1 mm 3 mps 731 mmHg 45%
15:00 +18°C° 0.1 mm 4 mps 731 mmHg 47%
16:00 +17°C° 0.1 mm 5 mps 731 mmHg 48%
17:00 +15°C° 0.1 mm 6 mps 731 mmHg 52%
18:00 +12°C° 0.1 mm 7 mps 731 mmHg 56%
19:00 +11°C° 0.1 mm 7 mps 732 mmHg 60%
20:00 +9°C° 0 mm 8 mps 732 mmHg 64%
21:00 +6°C° 0 mm 9 mps 733 mmHg 68%
22:00 +5°C° 0 mm 10 mps 733 mmHg 71%
23:00 +3°C° 0 mm 10 mps 734 mmHg 71%

Day after tomorrow, 19 April, Monday

Time Temperature Precipitation Wind Pressure Humidity
00:00 +1°C° 0 mm 9 mps 734 mmHg 71%
01:00 0°C° 0 mm 9 mps 735 mmHg 71%
02:00 0°C° 0 mm 9 mps 736 mmHg 69%
03:00 -1°C° 0 mm 9 mps 736 mmHg 67%
04:00 -3°C° 0 mm 9 mps 737 mmHg 65%
05:00 -3°C° 0 mm 9 mps 737 mmHg 65%
06:00 -4°C° 0 mm 9 mps 738 mmHg 64%
07:00 -4°C° 0 mm 9 mps 738 mmHg 64%
08:00 -3°C° 0 mm 9 mps 738 mmHg 58%
09:00 -3°C° 0 mm 9 mps 739 mmHg 52%
10:00 -1°C° 0 mm 9 mps 739 mmHg 46%
11:00 -1°C° 0 mm 9 mps 739 mmHg 43%
12:00 0°C° 0 mm 9 mps 739 mmHg 41%
13:00 +1°C° 0 mm 9 mps 739 mmHg 38%
14:00 +1°C° 0 mm 8 mps 739 mmHg 36%
15:00 +1°C° 0 mm 8 mps 739 mmHg 35%
16:00 +1°C° 0 mm 8 mps 740 mmHg 34%
17:00 0°C° 0 mm 8 mps 740 mmHg 36%
18:00 -1°C° 0 mm 8 mps 740 mmHg 39%
19:00 -2°C° 0 mm 8 mps 740 mmHg 41%
20:00 -3°C° 0 mm 7 mps 741 mmHg 43%
21:00 -3°C° 0 mm 7 mps 741 mmHg 45%
22:00 -4°C° 0 mm 7 mps 741 mmHg 47%
23:00 -4°C° 0 mm 7 mps 742 mmHg 47%

20 April, Tuesday

Time Temperature Precipitation Wind Pressure Humidity
00:00 -6°C° 0 mm 7 mps 742 mmHg 46%
01:00 -5°C° 0 mm 6 mps 742 mmHg 46%
02:00 -5°C° 0 mm 6 mps 743 mmHg 46%
03:00 -6°C° 0 mm 6 mps 743 mmHg 46%
04:00 -6°C° 0 mm 6 mps 743 mmHg 46%
05:00 -6°C° 0 mm 6 mps 743 mmHg 43%
06:00 -6°C° 0 mm 7 mps 744 mmHg 40%
07:00 -6°C° 0 mm 7 mps 744 mmHg 37%
08:00 -4°C° 0 mm 7 mps 744 mmHg 35%
09:00 -3°C° 0 mm 7 mps 744 mmHg 33%
10:00 -2°C° 0 mm 7 mps 745 mmHg 30%
11:00 -1°C° 0 mm 6 mps 745 mmHg 30%
12:00 +1°C° 0 mm 6 mps 745 mmHg 30%
13:00 +2°C° 0 mm 5 mps 745 mmHg 30%
14:00 +2°C° 0 mm 5 mps 744 mmHg 30%
15:00 +2°C° 0 mm 5 mps 744 mmHg 30%
16:00 +4°C° 0 mm 4 mps 744 mmHg 30%
17:00 +3°C° 0 mm 4 mps 744 mmHg 35%
18:00 +2°C° 0 mm 3 mps 744 mmHg 39%
19:00 +1°C° 0 mm 3 mps 744 mmHg 44%
20:00 +2°C° 0 mm 2 mps 744 mmHg 46%
21:00 +1°C° 0 mm 2 mps 744 mmHg 48%
22:00 -1°C° 0 mm 2 mps 744 mmHg 50%
23:00 -1°C° 0 mm 2 mps 745 mmHg 50%

21 April, Wednesday

Time Temperature Precipitation Wind Pressure Humidity
00:00 -1°C° 0 mm 2 mps 745 mmHg 50%
01:00 +1°C° 0 mm 1 mps 745 mmHg 49%
02:00 +1°C° 0 mm 1 mps 745 mmHg 49%
03:00 +1°C° 0 mm 1 mps 745 mmHg 49%
04:00 0°C° 0 mm 1 mps 745 mmHg 49%
05:00 +1°C° 0 mm 1 mps 745 mmHg 46%
06:00 +2°C° 0 mm 1 mps 746 mmHg 43%
07:00 +3°C° 0 mm 1 mps 746 mmHg 40%
08:00 +4°C° 0 mm 1 mps 746 mmHg 38%
09:00 +5°C° 0 mm 1 mps 746 mmHg 35%
10:00 +6°C° 0 mm 1 mps 746 mmHg 32%
11:00 +7°C° 0 mm 1 mps 746 mmHg 31%
12:00 +8°C° 0 mm 1 mps 746 mmHg 30%
13:00 +8°C° 0 mm 2 mps 745 mmHg 30%
14:00 +9°C° 0 mm 2 mps 745 mmHg 29%
15:00 +9°C° 0 mm 2 mps 745 mmHg 29%
16:00 +11°C° 0 mm 1 mps 745 mmHg 29%
17:00 +10°C° 0 mm 1 mps 745 mmHg 33%
18:00 +9°C° 0 mm 1 mps 745 mmHg 37%
19:00 +8°C° 0 mm 1 mps 745 mmHg 41%
20:00 +8°C° 0 mm 1 mps 745 mmHg 42%
21:00 +7°C° 0 mm 1 mps 745 mmHg 44%
22:00 +6°C° 0 mm 1 mps 745 mmHg 45%
23:00 +6°C° 0 mm 1 mps 745 mmHg 46%

22 April, Thursday

Time Temperature Precipitation Wind Pressure Humidity
00:00 +6°C° 0 mm 1 mps 745 mmHg 46%
01:00 +5°C° 0 mm 1 mps 745 mmHg 47%
02:00 +5°C° 0 mm 1 mps 745 mmHg 48%
03:00 +4°C° 0 mm 1 mps 745 mmHg 50%
04:00 +3°C° 0 mm 2 mps 746 mmHg 51%
05:00 +5°C° 0 mm 1 mps 746 mmHg 50%
06:00 +6°C° 0 mm 1 mps 746 mmHg 49%
07:00 +6°C° 0 mm 1 mps 746 mmHg 47%
08:00 +8°C° 0 mm 1 mps 746 mmHg 43%
09:00 +9°C° 0 mm 1 mps 746 mmHg 38%
10:00 +10°C° 0 mm 1 mps 746 mmHg 34%
11:00 +11°C° 0 mm 1 mps 746 mmHg 32%
12:00 +12°C° 0 mm 1 mps 746 mmHg 30%
13:00 +13°C° 0 mm 1 mps 746 mmHg 28%
14:00 +14°C° 0 mm 1 mps 746 mmHg 28%
15:00 +14°C° 0 mm 1 mps 746 mmHg 27%
16:00 +14°C° 0 mm 1 mps 745 mmHg 26%
17:00 +14°C° 0 mm 1 mps 745 mmHg 30%
18:00 +13°C° 0 mm 1 mps 745 mmHg 34%
19:00 +12°C° 0 mm 1 mps 745 mmHg 38%
20:00 +10°C° 0 mm 2 mps 745 mmHg 39%
21:00 +10°C° 0 mm 2 mps 745 mmHg 41%
22:00 +9°C° 0 mm 2 mps 745 mmHg 43%
23:00 +8°C° 0 mm 2 mps 745 mmHg 45%
Show more

We Need Your Consent

Meteoprog and our Service Providers may store and access personal data such as cookies, device identifiers or other similar technologies on your device and process such data to personalise content and ads, as well as provide social media features and to analyse the traffic.

  • Store and/or access information on your device

    Cookies, device identifiers or other information can be stored or accessed on your device for the purposes indicated above.

  • Personalised ads and content, ad and content measurement, audience insights, and products development

    Ads and content can be personalised based on a profile. More data can be added to better personalise ads and content. Ad and content performance can be measured. Insights about the audience who saw the ads and content can be derived. Such data can be used to develop or improve user’s experience, systems and software.

By clicking ‘I Agree’ you will allow the use of indicated cookies, device identifiers, web beacons or other similar technologies. Your settings can be changed in the browser on your device.

For certain purposes, legitimate interests may be relied on, rather than consent. You can read more about this in our Privacy and Cookie Policy.